Change the Weather History Date:

Wednesday, September 28, 2011

  Actual Average Record
Temperature  
Mean Temperature 76 °F -  
Max Temperature 94 °F 80 °F 98 °F (1998)
Min Temperature 59 °F 56 °F 42 °F (1996)
Cooling Degree Days 12    
Growing Degree Days 26 (Base 50)    
Moisture  
Dew Point 49 °F    
Average Humidity 41    
Maximum Humidity 67    
Minimum Humidity 22    
Precipitation  
Precipitation 0.00 in - - ()
Sea Level Pressure  
Sea Level Pressure 29.88 in    
Wind  
Wind Speed 5 mph (SSE)    
Max Wind Speed 12 mph    
Max Gust Speed -    
Visibility 10 miles    
Events      
Averages and records for this station are not official NWS values.
T = Trace of Precipitation, MM = Missing Value Source: NWS Daily Summary

Daily Weather History Graph

Daily Weather History Graph

Search for Another Location

Airport or City:

Trip Planner

Search our weather history database for the weather conditions in past years. The results will help you decide how hot, cold, wet, or windy it might be!

Date:

Astronomy

Sep. 28, 2011 Rise Set
Actual Time 7:29 AM CDT 7:25 PM CDT
Civil Twilight 7:04 AM CDT 7:50 PM CDT
Nautical Twilight 6:34 AM CDT 8:19 PM CDT
Astronomical Twilight 6:05 AM CDT 8:49 PM CDT
Moon 8:54 AM CDT (9/28) 8:04 PM CDT (9/28)
Length of Visible Light 12h 46m
Length of Day
11h 56m
New Moon, 2% of the Moon is Illuminated
Sep 28
New Moon
Oct 3
First Quarter
Oct 11
Full
Oct 19
Last Quarter
Oct 26
New

Hourly Weather History & Observations

Time (CDT) Temp. Dew Point Humidity Pressure Visibility Wind Dir Wind Speed Gust Speed Precip Events Conditions
12:55 AM 66.9 °F 48.2 °F 51% 29.93 in 10.0 mi East 4.6 mph - N/A   Clear
1:55 AM 63.0 °F 48.2 °F 59% 29.93 in 10.0 mi East 5.8 mph - N/A   Clear
2:55 AM 67.1 °F 48.6 °F 51% 29.93 in 10.0 mi Calm Calm - N/A   Partly Cloudy
3:55 AM 63.5 °F 48.4 °F 58% 29.92 in 10.0 mi Calm Calm - N/A   Clear
4:55 AM 65.3 °F 48.2 °F 54% 29.92 in 10.0 mi Calm Calm - N/A   Clear
5:55 AM 62.1 °F 48.0 °F 60% 29.91 in 10.0 mi Calm Calm - N/A   Clear
6:55 AM 63.3 °F 47.7 °F 57% 29.92 in 10.0 mi Calm Calm - N/A   Clear
7:55 AM 59.5 °F 48.4 °F 67% 29.94 in 10.0 mi Calm Calm - N/A   Clear
8:55 AM 66.7 °F 48.9 °F 53% 29.96 in 10.0 mi Calm Calm - N/A   Clear
9:55 AM 73.4 °F 48.7 °F 42% 29.96 in 10.0 mi SSW 3.5 mph - N/A   Clear
10:55 AM 79.9 °F 47.1 °F 32% 29.96 in 10.0 mi SSW 10.4 mph - N/A   Clear
11:55 AM 84.2 °F 48.2 °F 29% 29.94 in 10.0 mi South 11.5 mph - N/A   Clear
12:55 PM 87.8 °F 50.9 °F 28% 29.92 in 10.0 mi South 10.4 mph - N/A   Clear
1:55 PM 90.5 °F 52.5 °F 27% 29.89 in 10.0 mi SSW 9.2 mph - N/A   Clear
2:55 PM 93.0 °F 52.7 °F 25% 29.85 in 10.0 mi South 11.5 mph - N/A   Clear
3:55 PM 94.1 °F 50.9 °F 23% 29.83 in 10.0 mi SW 8.1 mph - N/A   Clear
4:55 PM 94.6 °F 49.6 °F 22% 29.80 in 10.0 mi SSE 6.9 mph - N/A   Clear
5:55 PM 93.6 °F 50.0 °F 23% 29.79 in 10.0 mi South 10.4 mph - N/A   Clear
6:55 PM 90.9 °F 50.0 °F 25% 29.80 in 10.0 mi South 9.2 mph - N/A   Clear
7:55 PM 81.7 °F 49.5 °F 32% 29.81 in 10.0 mi SSE 8.1 mph - N/A   Clear
8:55 PM 77.4 °F 48.9 °F 37% 29.81 in 10.0 mi SSE 6.9 mph - N/A   Clear
9:55 PM 74.8 °F 50.7 °F 43% 29.82 in 10.0 mi SSE 6.9 mph - N/A   Clear
10:55 PM 71.2 °F 50.0 °F 47% 29.83 in 10.0 mi SE 4.6 mph - N/A   Clear
11:55 PM 69.4 °F 49.8 °F 50% 29.83 in 10.0 mi ESE 3.5 mph - N/A   Clear